TimeEDT,TemperatureF,Dew PointF,Humidity,Sea Level PressureIn,VisibilityMPH,Wind Direction,Wind SpeedMPH,Gust SpeedMPH,PrecipitationIn,Events,Conditions,WindDirDegrees,DateUTC
12:15 AM,71.2,70.9,99,30.24,10.0,Calm,Calm,-,N/A,,Scattered Clouds,0,2013-08-21 04:15:00
12:35 AM,71.2,71.1,99,30.24,10.0,Calm,Calm,-,N/A,,Scattered Clouds,0,2013-08-21 04:35:00
12:55 AM,71.1,71.1,100,30.23,10.0,Calm,Calm,-,N/A,,Scattered Clouds,0,2013-08-21 04:55:00
1:15 AM,70.7,70.7,100,30.23,10.0,Calm,Calm,-,N/A,,Clear,0,2013-08-21 05:15:00
1:35 AM,70.9,70.9,100,30.22,7.0,Calm,Calm,-,0.01,Rain,Rain,0,2013-08-21 05:35:00
1:55 AM,70.7,70.7,100,30.22,4.0,Calm,Calm,-,0.05,Rain,Rain,0,2013-08-21 05:55:00
2:15 AM,71.1,71.1,100,30.22,7.0,Calm,Calm,-,N/A,Rain,Light Rain,0,2013-08-21 06:15:00
2:35 AM,70.7,70.7,100,30.22,5.0,Calm,Calm,-,N/A,Rain,Light Rain,0,2013-08-21 06:35:00
2:55 AM,70.7,70.7,100,30.22,5.0,Calm,Calm,-,N/A,Rain,Light Rain,0,2013-08-21 06:55:00
3:15 AM,71.1,71.1,100,30.22,7.0,Calm,Calm,-,0.01,Rain,Light Rain,0,2013-08-21 07:15:00
3:35 AM,70.9,70.9,100,30.21,7.0,Calm,Calm,-,0.01,,Clear,0,2013-08-21 07:35:00
3:55 AM,71.1,71.1,100,30.21,7.0,Calm,Calm,-,0.01,Rain,Light Rain,0,2013-08-21 07:55:00
4:15 AM,70.7,70.7,100,30.21,5.0,Calm,Calm,-,N/A,Rain,Light Rain,0,2013-08-21 08:15:00
4:35 AM,70.9,70.9,100,30.21,7.0,Calm,Calm,-,N/A,,Scattered Clouds,0,2013-08-21 08:35:00
4:55 AM,70.7,70.7,100,30.21,5.0,Calm,Calm,-,0.01,,Scattered Clouds,0,2013-08-21 08:55:00
5:15 AM,70.7,70.7,100,30.22,5.0,Calm,Calm,-,N/A,,Clear,0,2013-08-21 09:15:00
5:35 AM,70.9,70.9,100,30.22,7.0,Calm,Calm,-,N/A,,Clear,0,2013-08-21 09:35:00
5:55 AM,70.7,70.7,100,30.22,7.0,Calm,Calm,-,N/A,Rain,Light Rain,0,2013-08-21 09:55:00
6:15 AM,70.9,70.9,100,30.22,10.0,Calm,Calm,-,N/A,Rain,Light Rain,0,2013-08-21 10:15:00
6:35 AM,70.7,70.7,100,30.24,10.0,Calm,Calm,-,N/A,,Clear,0,2013-08-21 10:35:00
6:55 AM,70.7,70.7,100,30.24,10.0,Calm,Calm,-,N/A,,Clear,0,2013-08-21 10:55:00
7:15 AM,70.3,70.3,100,30.24,7.0,Calm,Calm,-,N/A,,Clear,0,2013-08-21 11:15:00
7:35 AM,70.3,70.3,100,30.25,7.0,Calm,Calm,-,N/A,,Clear,0,2013-08-21 11:35:00
7:55 AM,70.7,70.7,100,30.26,7.0,Calm,Calm,-,N/A,Rain,Light Rain,0,2013-08-21 11:55:00
8:15 AM,70.7,70.7,100,30.26,7.0,Calm,Calm,-,N/A,,Scattered Clouds,0,2013-08-21 12:15:00
8:35 AM,71.6,71.6,100,30.25,10.0,Calm,Calm,-,N/A,,Mostly Cloudy,0,2013-08-21 12:35:00
8:55 AM,72.9,72.3,98,30.26,10.0,Calm,Calm,-,N/A,,Scattered Clouds,0,2013-08-21 12:55:00
9:15 AM,72.9,72.1,98,30.26,10.0,Calm,Calm,-,N/A,,Scattered Clouds,0,2013-08-21 13:15:00
9:35 AM,74.1,72.5,95,30.26,10.0,Calm,Calm,-,N/A,,Scattered Clouds,0,2013-08-21 13:35:00
9:55 AM,75.6,72.5,90,30.26,10.0,SW,3.5,-,N/A,,Clear,220,2013-08-21 13:55:00
10:15 AM,76.8,72.3,86,30.27,10.0,Calm,Calm,-,N/A,,Clear,0,2013-08-21 14:15:00
10:35 AM,77.5,71.8,82,30.27,10.0,Calm,Calm,-,N/A,,Clear,0,2013-08-21 14:35:00
10:55 AM,79.0,72.0,79,30.27,10.0,Calm,Calm,-,N/A,,Clear,0,2013-08-21 14:55:00
11:15 AM,80.2,71.6,75,30.27,10.0,Calm,Calm,-,N/A,,Clear,0,2013-08-21 15:15:00
11:35 AM,80.2,71.8,75,30.26,10.0,Calm,Calm,-,N/A,,Scattered Clouds,0,2013-08-21 15:35:00
11:55 AM,81.0,71.8,74,30.26,10.0,Calm,Calm,-,N/A,,Mostly Cloudy,0,2013-08-21 15:55:00
12:15 PM,82.2,70.9,68,30.26,10.0,Calm,Calm,-,N/A,,Scattered Clouds,0,2013-08-21 16:15:00
12:35 PM,81.7,71.2,70,30.25,10.0,SSW,4.6,-,N/A,,Clear,210,2013-08-21 16:35:00
12:55 PM,81.9,71.1,70,30.24,10.0,Calm,Calm,-,N/A,,Scattered Clouds,0,2013-08-21 16:55:00
1:15 PM,79.9,73.0,80,30.24,10.0,Calm,Calm,-,N/A,,Mostly Cloudy,0,2013-08-21 17:15:00
1:35 PM,78.8,73.2,83,30.24,10.0,NNW,6.9,-,N/A,Rain,Light Rain,330,2013-08-21 17:35:00
1:55 PM,76.6,73.8,91,30.24,5.0,Calm,Calm,-,0.02,Rain,Rain,0,2013-08-21 17:55:00
2:15 PM,73.9,73.2,98,30.24,0.8,Calm,Calm,-,0.60,Rain,Heavy Rain,0,2013-08-21 18:15:00
2:35 PM,72.0,71.8,99,30.24,1.5,SSE,6.9,-,0.76,Rain,Heavy Rain,150,2013-08-21 18:35:00
2:55 PM,71.4,71.4,100,30.24,10.0,Calm,Calm,-,0.85,Rain,Light Rain,0,2013-08-21 18:55:00
3:15 PM,71.8,71.8,100,30.22,5.0,ESE,3.5,-,0.08,Rain,Rain,120,2013-08-21 19:15:00
3:35 PM,72.5,72.5,100,30.21,10.0,South,4.6,-,0.08,Rain,Light Rain,190,2013-08-21 19:35:00
3:55 PM,73.8,73.8,100,30.21,10.0,Calm,Calm,-,0.09,,Mostly Cloudy,0,2013-08-21 19:55:00
4:15 PM,74.3,74.3,100,30.21,10.0,Calm,Calm,-,N/A,,Overcast,0,2013-08-21 20:15:00
4:35 PM,74.3,74.3,100,30.20,10.0,Calm,Calm,-,N/A,,Scattered Clouds,0,2013-08-21 20:35:00
4:55 PM,74.8,74.8,100,30.21,10.0,Calm,Calm,-,N/A,,Scattered Clouds,0,2013-08-21 20:55:00
5:15 PM,75.0,75.0,100,30.19,10.0,Calm,Calm,-,N/A,,Clear,0,2013-08-21 21:15:00
5:35 PM,75.4,75.4,100,30.19,10.0,Calm,Calm,-,N/A,,Clear,0,2013-08-21 21:35:00
5:55 PM,77.4,75.6,94,30.20,10.0,Calm,Calm,-,N/A,,Clear,0,2013-08-21 21:55:00
6:15 PM,76.8,75.6,96,30.19,10.0,Calm,Calm,-,N/A,,Clear,0,2013-08-21 22:15:00
6:35 PM,76.1,75.4,98,30.17,10.0,Calm,Calm,-,N/A,,Clear,0,2013-08-21 22:35:00
6:55 PM,75.7,74.8,97,30.16,10.0,South,3.5,-,N/A,,Clear,180,2013-08-21 22:55:00
7:15 PM,75.9,75.2,98,30.17,10.0,Calm,Calm,-,N/A,Rain,Light Rain,0,2013-08-21 23:15:00
7:35 PM,75.7,74.7,96,30.17,10.0,Calm,Calm,-,N/A,,Clear,0,2013-08-21 23:35:00
7:55 PM,75.2,74.3,97,30.17,10.0,Calm,Calm,-,N/A,,Clear,0,2013-08-21 23:55:00
8:15 PM,74.5,74.3,99,30.16,7.0,Calm,Calm,-,N/A,,Clear,0,2013-08-22 00:15:00
8:35 PM,73.8,73.8,100,30.16,4.0,Calm,Calm,-,N/A,,Scattered Clouds,0,2013-08-22 00:35:00
8:55 PM,73.4,73.4,100,30.17,7.0,Calm,Calm,-,N/A,,Scattered Clouds,0,2013-08-22 00:55:00
9:15 PM,72.9,72.9,100,30.19,7.0,Calm,Calm,-,N/A,,Clear,0,2013-08-22 01:15:00
9:35 PM,72.9,72.5,99,30.21,10.0,SSE,3.5,-,N/A,,Clear,160,2013-08-22 01:35:00
9:55 PM,72.9,72.0,97,30.21,10.0,SSW,4.6,-,N/A,,Clear,210,2013-08-22 01:55:00
10:15 PM,72.7,71.8,97,30.21,10.0,Calm,Calm,-,N/A,,Clear,0,2013-08-22 02:15:00
10:35 PM,72.0,71.8,99,30.22,10.0,South,3.5,-,N/A,,Scattered Clouds,190,2013-08-22 02:35:00
10:55 PM,72.1,71.8,99,30.22,10.0,SSE,5.8,-,N/A,,Mostly Cloudy,160,2013-08-22 02:55:00
11:15 PM,72.7,71.2,95,30.21,10.0,Calm,Calm,-,N/A,,Scattered Clouds,0,2013-08-22 03:15:00
11:35 PM,72.3,71.6,98,30.20,10.0,SSE,3.5,-,N/A,,Clear,160,2013-08-22 03:35:00
11:55 PM,72.3,71.2,96,30.19,10.0,Calm,Calm,-,N/A,,Clear,0,2013-08-22 03:55:00